This demonstration page uses our WeatherBlox Daily Observations layout. Learn more.

Hourly Observations for July 15, 2020

Temp ( °F °C ) Dew Point ( °F °C ) Humidity (%) Winds ( mph kmh ) Pressure ( in mb ) Visibility ( mi km ) Precip ( " mm )
12:15 am 00:15 Cloudy 68 20 64 17.5 86 86 NE 8 13 29.95 1014 10 16.0934 0 0
12:35 am 00:35 Cloudy 67 19.7 63 17 85 85 NE 9 15 29.94 1014 10 16.0934 0 0
12:55 am 00:55 Partly Cloudy 67 19.3 62 16.7 85 85 NNE 10 17 29.93 1014 10 16.0934 0 0
1:15 am 01:15 Clear 66 18.7 62 16.6 88 88 NE 9 15 29.93 1013 10 16.0934 0 0
1:35 am 01:35 Partly Cloudy 65 18.5 62 16.6 89 89 NNE 10 17 29.91 1013 10 16.0934 0 0
1:55 am 01:55 Cloudy 65 18.5 61 16.2 87 87 NNE 9 15 29.93 1014 10 16.0934 0 0
2:15 am 02:15 Cloudy 65 18.6 61 16 85 85 NE 10 17 29.95 1014 10 16.0934 0 0
2:35 am 02:35 Mostly Cloudy 65 18.6 60 15.4 82 82 NE 14 22 29.94 1014 10 16.0934 0 0
2:55 am 02:55 Partly Cloudy 65 18.5 59 15.1 81 81 NNE 13 20 29.94 1014 10 16.0934 0 0
3:15 am 03:15 Partly Cloudy 65 18.5 59 15 80 80 NNE 13 20 29.93 1014 10 16.0934 0 0
3:35 am 03:35 Mostly Cloudy 65 18.2 58 14.7 80 80 NNE 12 19 29.91 1013 10 16.0934 0 0
3:55 am 03:55 Partly Cloudy 64 18 59 14.8 82 82 NNE 10 17 29.9 1013 10 16.0934 0 0
4:15 am 04:15 Clear 64 17.7 59 15 84 84 NE 8 13 29.9 1012 10 16.0934 0 0
4:35 am 04:35 Partly Cloudy 64 17.8 58 14.6 82 82 E 12 19 29.91 1013 10 16.0934 0 0
4:55 am 04:55 Partly Cloudy 64 17.5 58 14.7 84 84 ENE 7 11 29.91 1013 10 16.0934 0 0
5:15 am 05:15 Clear 63 17.1 59 15 88 88 NE 5 7 29.92 1013 10 16.0934 0 0
5:35 am 05:35 Clear 62 16.7 59 15 90 90 NNE 5 7 29.92 1013 10 16.0934 0 0
5:55 am 05:55 Clear 62 16.7 59 15.2 91 91 NE 3 6 29.93 1014 10 16.0934 0 0
6:15 am 06:15 Partly Cloudy 62 16.8 60 15.4 92 92 N 3 6 29.94 1014 10 16.0934 0 0
6:35 am 06:35 Mostly Cloudy 62 16.7 60 15.4 92 92 N 7 11 29.94 1014 10 16.0934 0 0
6:55 am 06:55 Cloudy 63 17 60 15.5 91 91 N 6 9 29.97 1015 10 16.0934 0 0
7:15 am 07:15 Cloudy 63 17.2 59 15.1 88 88 N 3 6 29.98 1015 10 16.0934 0 0
7:35 am 07:35 Cloudy 64 17.5 60 15.3 87 87 NNW 3 6 29.98 1015 10 16.0934 0 0
7:55 am 07:55 Cloudy 64 17.5 60 15.5 88 88 N 5 7 29.96 1014 10 16.0934 0 0
8:15 am 08:15 Partly Cloudy 64 17.8 60 15.5 86 86 N 7 11 29.98 1015 10 16.0934 0 0
8:35 am 08:35 Sunny 65 18.2 60 15.3 83 83 NNE 12 19 29.97 1015 10 16.0934 0 0
8:55 am 08:55 Sunny 65 18.6 59 14.9 79 79 N 16 26 29.98 1015 10 16.0934 0 0
9:15 am 09:15 Sunny 67 19.4 59 15.1 76 76 N 18 30 29.99 1016 10 16.0934 0 0
9:35 am 09:35 Sunny 68 20 58 14.2 69 69 NNE 21 33 29.99 1015 10 16.0934 0 0
9:55 am 09:55 Mostly Cloudy 68 19.8 58 14.4 71 71 N 15 24 30.01 1016 10 16.0934 0 0
10:15 am 10:15 Cloudy 67 19.7 58 14.2 71 71 N 14 22 30.03 1017 10 16.0934 0 0
10:35 am 10:35 Cloudy 67 19.5 58 14.4 73 73 N 15 24 30.02 1017 10 16.0934 0 0
10:55 am 10:55 Cloudy 67 19.7 58 14.4 72 72 N 17 28 30.03 1017 10 16.0934 0 0
11:15 am 11:15 Mostly Cloudy 69 20.6 57 14.1 66 66 N 17 28 30.03 1017 10 16.0934 0 0
11:35 am 11:35 Partly Cloudy 70 20.9 56 13.6 63 63 N 17 28 30.03 1017 10 16.0934 0 0
11:55 am 11:55 Sunny 71 21.6 57 13.9 62 62 NNE 16 26 30 1016 10 16.0934 0 0
12:15 pm 12:15 Sunny 74 23.1 58 14.6 59 59 N 14 22 29.99 1016 10 16.0934 0 0
12:35 pm 12:35 Sunny 74 23.1 57 14.1 57 57 N 10 17 29.99 1016 10 16.0934 0 0
12:55 pm 12:55 Sunny 74 23.5 58 14.4 57 57 NNE 10 17 29.98 1015 10 16.0934 0 0
1:15 pm 13:15 Sunny 75 24 58 14.2 54 54 ENE 8 13 29.98 1015 10 16.0934 0 0
1:35 pm 13:35 Sunny 76 24.2 59 15.1 57 57 NNE 7 11 29.97 1015 10 16.0934 0 0
1:55 pm 13:55 Sunny 76 24.3 60 15.3 57 57 NNE 5 7 29.96 1015 10 16.0934 0 0
2:15 pm 14:15 Sunny 76 24.7 61 16 59 59 NNE 6 9 29.95 1014 10 16.0934 0 0
2:35 pm 14:35 Sunny 77 24.9 61 16.1 58 58 NNE 3 6 29.95 1014 10 16.0934 0 0
2:55 pm 14:55 Sunny 77 25.1 62 16.5 59 59 N 6 9 29.95 1014 10 16.0934 0 0
3:15 pm 15:15 Hazy 77 25.1 61 16.2 58 58 NNE 5 7 29.95 1014 5 8.0467 0 0
3:35 pm 15:35 Sunny 77 25.2 60 15.7 56 56 Calm 29.94 1014 10 16.0934 0 0
3:55 pm 15:55 Sunny 79 26 62 16.6 56 56 Calm 29.94 1014 10 16.0934 0 0
4:15 pm 16:15 Sunny 78 25.8 61 16.2 55 55 Calm 29.92 1013 10 16.0934 0 0
4:35 pm 16:35 Sunny 78 25.8 61 16.2 55 55 NE 6 9 29.93 1014 10 16.0934 0 0
4:55 pm 16:55 Sunny 80 26.9 63 17 55 55 N 3 6 29.91 1013 10 16.0934 0 0
5:15 pm 17:15 Sunny 80 26.6 62 16.5 54 54 ENE 5 7 29.9 1013 10 16.0934 0 0
5:35 pm 17:35 Sunny 80 26.5 62 16.9 56 56 Calm 29.9 1013 10 16.0934 0 0
5:55 pm 17:55 Sunny 80 26.5 62 16.5 54 54 Calm 29.9 1013 10 16.0934 0 0
6:15 pm 18:15 Sunny 80 26.4 62 16.8 56 56 NNE 5 7 29.89 1012 10 16.0934 0 0
6:35 pm 18:35 Sunny 80 26.5 63 17 56 56 Calm 29.89 1012 10 16.0934 0 0
6:55 pm 18:55 Sunny 80 26.6 62 16.6 54 54 Calm 29.89 1012 10 16.0934 0 0
7:15 pm 19:15 Sunny 78 25.8 62 16.5 57 57 Calm 29.9 1013 10 16.0934 0 0
7:35 pm 19:35 Sunny 79 26 62 16.9 57 57 Calm 29.9 1012 10 16.0934 0 0
7:55 pm 19:55 Sunny 78 25.6 63 17.3 60 60 Calm 29.89 1012 10 16.0934 0 0
8:15 pm 20:15 Sunny 78 25.5 63 17.2 60 60 Calm 29.89 1012 10 16.0934 0 0
8:35 pm 20:35 Sunny 76 24.3 66 18.9 72 72 Calm 29.9 1013 10 16.0934 0 0
8:55 pm 20:55 Sunny 74 23.5 67 19.3 77 77 Calm 29.92 1013 7 11.26538 0 0
9:15 pm 21:15 Clear 75 24 64 18 69 69 Calm 29.93 1014 10 16.0934 0 0
9:35 pm 21:35 Clear 72 22.3 65 18.3 78 78 Calm 29.96 1014 10 16.0934 0 0
9:55 pm 21:55 Clear 70 21 65 18.6 86 86 Calm 29.98 1015 10 16.0934 0 0
10:15 pm 22:15 Clear 68 20 65 18.6 92 92 Calm 29.99 1015 10 16.0934 0 0
10:35 pm 22:35 Clear 69 20.5 66 18.7 89 89 Calm 29.98 1015 10 16.0934 0 0
10:55 pm 22:55 Clear 69 20.5 65 18.6 89 89 Calm 29.98 1015 10 16.0934 0 0
11:15 pm 23:15 Clear 69 20.6 65 18.6 88 88 Calm 29.98 1015 10 16.0934 0 0
11:35 pm 23:35 Clear 67 19.6 65 18.4 93 93 Calm 29.99 1016 10 16.0934 0 0
11:55 pm 23:55 Clear 67 19.5 64 17.9 91 91 ESE 7 11 29.98 1015 10 16.0934 0 0

Powered by AerisWeather